Regional Weather Roundup
Issued by NWS

Home | Current Version | Previous Version | Graphics & Text | Print | Product List | Glossary On
Versions: 1 2 3 4 5 6 7 8 9 10 11 12 13 14 15 16 17 18 19 20 21 22 23 24 25 26 27 28 29 30 31 32 33 34 35 36 37 38 39 40 41 42 43 44 45 46 47 48 49 50
000
ASUS45 KCYS 021710
RWRWY

WYOMING REGIONAL WEATHER ROUNDUP
NATIONAL WEATHER SERVICE CHEYENNE WY
1000 AM MST MON MAR 02 2015

NOTE:  "FAIR" INDICATES FEW OR NO CLOUDS BELOW 12,000 FEET
WITH NO SIGNIFICANT WEATHER AND/OR OBSTRUCTIONS TO VISIBILITY.

WYZ001-021800-
YELLOWSTONE NATIONAL PARK

CITY           SKY/WX    TMP DP  RH WIND       PRES   REMARKS
LK YELLOWSTONE   N/A      2  -7  66 E3        29.82S
W YELLOWSTONE  NOT AVBL

$$
WYZ002>013-054>058-071-098>099-021800-
NORTHERN WYOMING

CITY           SKY/WX    TMP DP  RH WIND       PRES   REMARKS
JACKSON        SUNNY     10   5  79 VRB7      29.86F WCI   0
CODY           FAIR      30  19  64 SE5       29.80F WCI  25
GREYBULL       FAIR      26  12  55 S6        29.86F WCI  19
WORLAND        FAIR      22  15  75 CALM      29.85F
SHERIDAN       FAIR      24  11  57 CALM      29.81F
BUFFALO        FAIR      30  10  43 S5        29.79F WCI  25
GILLETTE       FAIR      29  20  69 S15       29.82F WCI  18
HULETT         FAIR      34  21  60 SW16G22   29.83F WCI  23
NEWCASTLE      FAIR      34  19  55 SE13      29.88F WCI  25

$$
WYZ014>020-022>026-101>103-021800-
CENTRAL WYOMING

CITY           SKY/WX    TMP DP  RH WIND       PRES   REMARKS
BIG PINEY      FAIR      24  15  68 SE5       29.82F WCI  18
PINEDALE       PTSUNNY   18  10  73 W7        29.83F WCI   8
DUBOIS         FAIR      27  14  59 W16       29.76F WCI  14
LANDER         FAIR      18   9  68 CALM      29.83F
RIVERTON       FAIR      17  12  80 MISG      29.86S
CASPER         FAIR      30  20  66 N3        29.82F
DOUGLAS        CLOUDY    34  21  59 SE15      29.84F WCI  24

$$
WYZ021-027>030-104>119-021800-
SOUTHERN WYOMING

CITY           SKY/WX    TMP DP  RH WIND       PRES   REMARKS
EVANSTON       LGT SNOW  25  22  88 E6        29.76F VSB 1   WCI  18
KEMMERER       LGT SNOW  27  21  80 N12       29.79F WCI  16
FORT BRIDGER   LGT SNOW  24  23  96 N5        29.82F VSB 1   WCI  18
ROCK SPRINGS   LGT SNOW  26  23  88 NE5       29.79F VSB 1   WCI  20
DIXON          LGT SNOW  33  32  96 SE5       29.84F WCI  29
RAWLINS        SNOW      27  24  89 CALM      29.82F VSB 1/2
SARATOGA         N/A    N/A N/A N/A MISG        N/A
LARAMIE        LGT SNOW  27  24  89 SW5       29.81F FOG     WCI  22
CHEYENNE       CLOUDY    22  19  89 S8        29.86F FOG     WCI  12
TORRINGTON     PTSUNNY   36  21  54 S17       29.90F WCI  26
PINE BLUFFS    CLOUDY    28  21  74 S13       29.93F WCI  18

$$


USA.gov is the U.S. government's official web portal to all federal, state and local government web resources and services.